| time (UTC) | temp C | wind direction | speed KPH | gust KPH | rain 1hr cm | rain 24hr cm | rain mn cm | humidity % | barometer mb |
| 20260831003026 | 31 | 142 | 0.0 | 0.0 | 0.00 | 0.00 | 0.00 | 49 | 1013.6 |
| 20260831001536 | 31 | 136 | 0.0 | 1.6 | 0.00 | 0.00 | 0.00 | 48 | 1013.7 |
| 20260831000025 | 31 | 161 | 0.0 | 17.7 | 0.00 | 0.00 | 0.00 | 46 | 1013.7 |
| 20260830234527 | 32 | 172 | 0.0 | 11.3 | 0.00 | 0.00 | 0.00 | 44 | 1013.7 |
| 20260830233024 | 32 | 194 | 0.0 | 8.0 | 0.00 | 0.00 | 0.00 | 42 | 1013.9 |
| 20260830231523 | 32 | 180 | 0.0 | 22.5 | 0.00 | 0.00 | 0.00 | 41 | 1013.8 |
| 20260830230021 | 33 | 131 | 0.0 | 17.7 | 0.00 | 0.00 | 0.00 | 41 | 1013.8 |
| 20260830224521 | 33 | 167 | 0.0 | 24.1 | 0.00 | 0.00 | 0.00 | 40 | 1013.8 |
| 20260830223022 | 34 | 123 | 1.6 | 12.9 | 0.00 | 0.00 | 0.00 | 37 | 1013.7 |
| 20260830221520 | 34 | 145 | 0.0 | 4.8 | 0.00 | 0.00 | 0.00 | 37 | 1013.7 |
| 20260830220021 | 34 | 137 | 0.0 | 17.7 | 0.00 | 0.00 | 0.00 | 36 | 1013.7 |
| 20260830214518 | 34 | 148 | 0.0 | 4.8 | 0.00 | 0.00 | 0.00 | 36 | 1013.7 |
| 20260830213017 | 35 | 132 | 0.0 | 11.3 | 0.00 | 0.00 | 0.00 | 36 | 1013.9 |
| 20260830211517 | 35 | 169 | 0.0 | 4.8 | 0.00 | 0.00 | 0.00 | 35 | 1013.9 |
| 20260830210017 | 35 | 222 | 0.0 | 6.4 | 0.00 | 0.00 | 0.00 | 36 | 1014.1 |
| 20260830204527 | 35 | 195 | 0.0 | 11.3 | 0.00 | 0.00 | 0.00 | 36 | 1014.1 |
| 20260830203012 | 35 | 123 | 0.0 | 6.4 | 0.00 | 0.00 | 0.00 | 35 | 1014.1 |
| 20260830201514 | 35 | 127 | 0.0 | 9.7 | 0.00 | 0.00 | 0.00 | 37 | 1014.4 |
| 20260830200006 | 34 | 169 | 0.0 | 4.8 | 0.00 | 0.00 | 0.00 | 38 | 1014.7 |
| 20260830194505 | 34 | 161 | 0.0 | 11.3 | 0.00 | 0.00 | 0.00 | 38 | 1014.7 |
| 20260830193004 | 34 | 230 | 0.0 | 4.8 | 0.00 | 0.00 | 0.00 | 39 | 1014.9 |
| 20260830191603 | 34 | 90 | 0.0 | 9.7 | 0.00 | 0.00 | 0.00 | 37 | 1015.0 |
| 20260830190058 | 33 | 192 | 0.0 | 1.6 | 0.00 | 0.00 | 0.00 | 40 | 1015.3 |
| 20260830184557 | 33 | 210 | 0.0 | 1.6 | 0.00 | 0.00 | 0.00 | 39 | 1015.2 |
| 20260830183053 | 33 | 169 | 0.0 | 3.2 | 0.00 | 0.00 | 0.00 | 36 | 1015.4 |
| 20260830181552 | 33 | 274 | 0.0 | 1.6 | 0.00 | 0.00 | 0.00 | 39 | 1015.6 |
| 20260830180049 | 33 | 209 | 0.0 | 4.8 | 0.00 | 0.00 | 0.00 | 40 | 1015.6 |
| 20260830174609 | 32 | 221 | 0.0 | 0.0 | 0.00 | 0.00 | 0.00 | 41 | 1015.8 |
| 20260830173042 | 32 | 175 | 0.0 | 16.1 | 0.00 | 0.00 | 0.00 | 42 | 1016.1 |
| 20260830171543 | 31 | 167 | 0.0 | 8.0 | 0.00 | 0.00 | 0.00 | 41 | 1016.2 |
| 20260830170037 | 31 | 205 | 0.0 | 6.4 | 0.00 | 0.00 | 0.00 | 41 | 1016.6 |
| 20260830164532 | 30 | 164 | 0.0 | 11.3 | 0.00 | 0.00 | 0.00 | 45 | 1016.7 |
| 20260830163040 | 30 | 17 | 0.0 | 11.3 | 0.00 | 0.00 | 0.00 | 45 | 1016.8 |
| 20260830161527 | 30 | 204 | 0.0 | 11.3 | 0.00 | 0.00 | 0.00 | 45 | 1016.8 |
| 20260830160022 | 29 | 167 | 0.0 | 8.0 | 0.00 | 0.00 | 0.00 | 49 | 1016.7 |
| 20260830154519 | 28 | 203 | 1.6 | 8.0 | 0.00 | 0.00 | 0.00 | 49 | 1016.6 |
| 20260830153029 | 28 | 155 | 0.0 | 9.7 | 0.00 | 0.00 | 0.00 | 51 | 1016.4 |
| 20260830151529 | 28 | 209 | 0.0 | 9.7 | 0.00 | 0.00 | 0.00 | 53 | 1016.2 |
| 20260830150009 | 27 | 180 | 0.0 | 6.4 | 0.00 | 0.00 | 0.00 | 55 | 1016.4 |
| 20260830144505 | 27 | 207 | 0.0 | 6.4 | 0.00 | 0.00 | 0.00 | 58 | 1016.3 |
| 20260830143002 | 26 | 197 | 0.0 | 0.0 | 0.00 | 0.00 | 0.00 | 63 | 1016.3 |
| 20260830141558 | 25 | 213 | 0.0 | 1.6 | 0.00 | 0.00 | 0.00 | 65 | 1016.2 |
| 20260830140113 | 25 | 186 | 0.0 | 3.2 | 0.00 | 0.00 | 0.00 | 69 | 1016.3 |
| 20260830134551 | 23 | 219 | 0.0 | 1.6 | 0.00 | 0.00 | 0.00 | 71 | 1016.2 |
| 20260830133050 | 23 | 203 | 1.6 | 4.8 | 0.00 | 0.00 | 0.00 | 72 | 1016.4 |
| 20260830131550 | 22 | 220 | 0.0 | 6.4 | 0.00 | 0.00 | 0.00 | 74 | 1016.5 |
| 20260830130055 | 22 | 201 | 0.0 | 0.0 | 0.00 | 0.00 | 0.00 | 75 | 1016.6 |
| 20260830124548 | 22 | 201 | 0.0 | 0.0 | 0.00 | 0.00 | 0.00 | 76 | 1016.5 |
| 20260830123052 | 22 | 201 | 0.0 | 1.6 | 0.00 | 0.00 | 0.00 | 75 | 1016.5 |
| 20260830121546 | 22 | 201 | 0.0 | 0.0 | 0.00 | 0.00 | 0.00 | 76 | 1016.4 |
| 20260830120045 | 21 | 203 | 0.0 | 0.0 | 0.00 | 0.00 | 0.00 | 76 | 1016.3 |
| 20260830114546 | 21 | 180 | 0.0 | 0.0 | 0.00 | 0.00 | 0.00 | 77 | 1016.2 |
| 20260830113051 | 21 | 180 | 0.0 | 0.0 | 0.00 | 0.00 | 0.00 | 78 | 1016.2 |
| 20260830111543 | 21 | 179 | 0.0 | 0.0 | 0.00 | 0.00 | 0.00 | 78 | 1016.1 |
| 20260830110046 | 21 | 178 | 0.0 | 0.0 | 0.00 | 0.00 | 0.00 | 79 | 1015.8 |
| 20260830104541 | 21 | 173 | 0.0 | 0.0 | 0.00 | 0.00 | 0.00 | 79 | 1015.9 |
| 20260830103043 | 21 | 173 | 0.0 | 0.0 | 0.00 | 0.00 | 0.00 | 81 | 1016.0 |
| 20260830101555 | 21 | 178 | 0.0 | 0.0 | 0.00 | 0.00 | 0.00 | 81 | 1015.8 |
| 20260830100039 | 21 | 182 | 0.0 | 0.0 | 0.00 | 0.00 | 0.00 | 81 | 1015.8 |
| 20260830094536 | 21 | 145 | 0.0 | 0.0 | 0.00 | 0.00 | 0.00 | 80 | 1015.6 |
| 20260830093034 | 21 | 203 | 0.0 | 0.0 | 0.00 | 0.00 | 0.00 | 79 | 1015.6 |
| 20260830091534 | 21 | 219 | 0.0 | 0.0 | 0.00 | 0.00 | 0.00 | 78 | 1015.7 |
| 20260830090031 | 22 | 228 | 0.0 | 0.0 | 0.00 | 0.00 | 0.00 | 78 | 1015.8 |
| 20260830084531 | 22 | 141 | 0.0 | 0.0 | 0.00 | 0.00 | 0.00 | 79 | 1015.7 |
| 20260830083030 | 22 | 194 | 0.0 | 1.6 | 0.00 | 0.00 | 0.00 | 79 | 1015.7 |
| 20260830081527 | 22 | 130 | 0.0 | 0.0 | 0.00 | 0.00 | 0.00 | 78 | 1016.2 |
| 20260830080025 | 22 | 138 | 0.0 | 1.6 | 0.00 | 0.00 | 0.00 | 77 | 1016.3 |
| 20260830074529 | 22 | 137 | 0.0 | 4.8 | 0.00 | 0.00 | 0.00 | 77 | 1016.3 |
| 20260830073023 | 22 | 159 | 0.0 | 4.8 | 0.00 | 0.00 | 0.00 | 76 | 1016.4 |
| 20260830071540 | 22 | 142 | 0.0 | 0.0 | 0.00 | 0.00 | 0.00 | 76 | 1016.4 |
| 20260830070023 | 22 | 138 | 0.0 | 3.2 | 0.00 | 0.00 | 0.00 | 75 | 1016.4 |
| 20260830064518 | 22 | 194 | 0.0 | 0.0 | 0.00 | 0.00 | 0.00 | 74 | 1016.3 |
| 20260830063017 | 23 | 46 | 0.0 | 0.0 | 0.00 | 0.00 | 0.00 | 74 | 1016.3 |
| 20260830061516 | 23 | 135 | 0.0 | 0.0 | 0.00 | 0.00 | 0.00 | 74 | 1016.3 |
| 20260830060014 | 23 | 141 | 0.0 | 1.6 | 0.00 | 0.00 | 0.00 | 74 | 1016.4 |
| 20260830054516 | 23 | 172 | 0.0 | 0.0 | 0.00 | 0.00 | 0.00 | 74 | 1016.2 |
| 20260830053010 | 23 | 195 | 0.0 | 0.0 | 0.00 | 0.00 | 0.00 | 73 | 1016.4 |
| 20260830051512 | 23 | 190 | 0.0 | 0.0 | 0.00 | 0.00 | 0.00 | 74 | 1016.5 |
| 20260830050006 | 23 | 139 | 0.0 | 0.0 | 0.00 | 0.00 | 0.00 | 74 | 1016.6 |
| 20260830044505 | 23 | 151 | 0.0 | 0.0 | 0.00 | 0.00 | 0.00 | 73 | 1016.6 |
| 20260830043005 | 24 | 146 | 0.0 | 3.2 | 0.00 | 0.00 | 0.00 | 73 | 1016.5 |
| 20260830041505 | 24 | 145 | 0.0 | 0.0 | 0.00 | 0.00 | 0.00 | 72 | 1016.4 |
| 20260830040004 | 24 | 137 | 0.0 | 1.6 | 0.00 | 0.00 | 0.00 | 71 | 1016.5 |
| 20260830034503 | 24 | 130 | 0.0 | 0.0 | 0.00 | 0.00 | 0.00 | 70 | 1016.5 |
| 20260830033003 | 24 | 139 | 0.0 | 0.0 | 0.00 | 0.00 | 0.00 | 70 | 1016.4 |
| 20260830031502 | 25 | 139 | 0.0 | 0.0 | 0.00 | 0.00 | 0.00 | 69 | 1016.6 |
| 20260830030002 | 25 | 139 | 0.0 | 0.0 | 0.00 | 0.00 | 0.00 | 68 | 1016.5 |
| 20260830024501 | 25 | 142 | 0.0 | 0.0 | 0.00 | 0.00 | 0.00 | 67 | 1016.4 |
| 20260830023110 | 25 | 134 | 0.0 | 0.0 | 0.00 | 0.00 | 0.00 | 65 | 1016.5 |
| 20260830021602 | 25 | 134 | 0.0 | 0.0 | 0.00 | 0.00 | 0.00 | 65 | 1016.3 |
| 20260830014610 | 26 | 155 | 0.0 | 0.0 | 0.00 | 0.00 | 0.00 | 62 | 1016.0 |
| 20260830013106 | 26 | 220 | 0.0 | 0.0 | 0.00 | 0.00 | 0.00 | 61 | 1015.7 |
| 20260830011613 | 26 | 185 | 0.0 | 3.2 | 0.00 | 0.00 | 0.00 | 60 | 1015.4 |
| 20260830010117 | 27 | 175 | 0.0 | 1.6 | 0.00 | 0.00 | 0.00 | 59 | 1015.5 |
| 20260830004555 | 27 | 173 | 0.0 | 1.6 | 0.00 | 0.00 | 0.00 | 58 | 1015.6 |